Date,TemperatureHighF,TemperatureAvgF,TemperatureLowF,DewpointHighF,DewpointAvgF,DewpointLowF,HumidityHigh,HumidityAvg,HumidityLow,PressureMaxIn,PressureMinIn,WindSpeedMaxMPH,WindSpeedAvgMPH,GustSpeedMaxMPH,PrecipitationSumIn
2013-2-1,67.2,55.0,45.6,47.0,37.2,27.0,83,55,23,30.37,30.24,14,7,20,0.00
2013-2-2,71.5,58.0,45.9,48.0,43.6,37.0,87,62,30,30.32,30.15,9,4,11,0.00
2013-2-3,70.4,57.9,48.2,55.0,46.7,37.0,89,68,46,30.22,30.08,14,7,20,0.00
2013-2-4,69.7,58.4,48.6,51.0,42.9,37.0,93,60,31,30.16,30.04,10,4,12,0.00
2013-2-5,76.0,62.8,48.1,57.0,48.4,37.0,85,61,43,30.11,30.00,11,3,13,0.00
2013-2-6,78.2,69.0,60.2,64.0,58.3,53.0,86,70,53,30.12,30.03,10,2,13,0.00
2013-2-7,80.6,70.2,61.2,67.0,63.0,58.0,96,80,51,30.08,29.87,19,6,26,0.01
2013-2-8,80.1,68.8,58.0,66.0,60.9,55.0,97,79,43,30.09,29.89,13,7,17,0.00
2013-2-9,74.7,64.0,55.4,60.0,57.6,54.0,99,82,48,30.21,30.08,14,8,18,0.00
2013-2-10,78.9,67.7,58.5,63.0,60.2,57.0,94,78,55,30.27,30.15,14,7,20,0.00
2013-2-11,81.0,69.8,60.0,66.0,62.6,59.0,98,80,52,30.21,30.07,12,4,17,0.00
2013-2-12,82.1,71.8,63.8,70.0,66.2,63.0,98,84,54,30.11,29.95,14,6,19,0.00
2013-2-13,84.0,72.8,63.1,72.0,67.9,58.0,99,85,62,29.99,29.86,20,9,29,0.08
2013-2-14,65.5,62.4,59.7,64.0,60.2,57.0,99,92,81,30.05,29.94,14,4,19,0.34
2013-2-15,67.5,60.2,55.8,62.0,57.5,52.0,100,91,70,30.09,29.96,9,5,13,0.09
2013-2-16,66.7,56.8,51.8,55.0,47.6,34.0,97,73,49,30.13,29.94,23,8,26,0.00
2013-2-17,53.8,46.9,40.2,38.0,28.6,19.0,69,51,26,30.36,30.14,19,9,28,0.00
2013-2-18,67.6,52.9,37.6,51.0,41.5,31.0,87,67,45,30.37,30.22,14,6,19,0.00
2013-2-19,75.8,64.6,52.6,61.0,54.5,48.0,91,72,50,30.23,30.08,15,4,25,0.00
2013-2-20,78.2,67.3,60.2,65.0,62.2,57.0,100,85,61,30.13,30.01,10,4,14,0.00
2013-2-21,81.4,69.8,58.8,67.0,62.1,57.0,97,78,52,30.12,29.99,8,4,12,0.00
2013-2-22,85.0,73.0,63.1,70.0,66.0,63.0,99,81,48,30.09,29.98,16,4,17,0.00
2013-2-23,84.1,74.7,68.5,71.0,69.1,67.0,98,84,59,30.02,29.89,15,6,23,0.00
2013-2-24,82.1,72.5,67.6,71.0,68.7,67.0,99,89,64,29.97,29.88,12,5,18,0.00
2013-2-25,84.0,74.1,65.9,72.0,67.3,65.0,100,82,54,29.92,29.78,15,6,21,0.00
2013-2-26,76.4,71.0,63.6,73.0,68.7,63.0,97,92,80,29.89,29.73,17,7,27,0.17
2013-2-27,74.6,65.1,56.2,63.0,58.5,52.0,97,81,53,29.98,29.88,11,4,15,0.00
2013-2-28,72.7,62.0,54.7,56.0,52.6,49.0,92,73,47,30.02,29.90,15,6,21,0.00